[[{"header":{"parameterUnit":"m.s-1","parameterCategory":1,"la1":30.2991,"la2":30.254,"lo1":-89.0895,"lo2":-89.0444,"dy":0.0017,"dx":0.0017,"nx":28,"ny":28,"refTime":"2025-01-30T09:00:00:Z","depth":0,"parameterNumber":2,"parameterNumberName":"U-component_of_WINDS"},"data":[0,0,0,0,0,0,0,0,0,0,0,0,0,0,0,0,0,0,0,0,0,0,0,0,0,0,0,0,0,0,0,0,0,0,0,0,0,0,0,0,0,0,0,0,0,0,0,0,0,0,0,0,0,0,0,0,0,0,-2.2769,-2.2769,0,-2.2754,-2.2754,-2.2754,-2.2684,-2.2682,-2.2681,-2.2679,-2.2666,-2.2667,-2.2668,0,0,0,0,0,0,0,0,0,0,0,0,0,-2.2739,-2.274,-2.2769,-2.2769,-2.2768,-2.2754,-2.2754,-2.2753,-2.2684,-2.2682,-2.268,-2.2678,-2.2666,-2.2667,-2.2668,0,0,0,0,0,0,0,0,0,0,0,0,0,-2.2741,-2.274,-2.2769,-2.2732,-2.2729,-2.2754,-2.2754,-2.2753,-2.2685,-2.2682,-2.268,-2.2677,-2.2665,-2.2667,-2.2669,-2.2729,0,0,-2.2674,-2.2675,0,0,0,0,0,0,0,0,-2.2741,-2.2742,-2.2738,-2.2735,-2.2731,-2.2718,-2.2738,-2.2745,-2.2685,-2.2701,-2.2679,-2.2676,-2.2685,-2.2685,-2.2688,-2.2728,-2.2727,-2.2674,-2.2675,-2.2676,-2.2676,0,0,0,0,0,0,0,-2.2741,-2.2743,-2.2763,-2.2738,-2.2734,-2.2717,-2.2715,-2.2739,-2.2708,-2.27,-2.2695,-2.2694,-2.2683,-2.2687,-2.2687,-2.2727,-2.2674,-2.2676,-2.2677,-2.2677,-2.2815,-2.2818,0,0,0,0,0,0,-2.2746,-2.2743,-2.2763,-2.2762,-2.273,-2.272,-2.2717,-2.2725,-2.2707,-2.2702,-2.2696,-2.2691,-2.2685,-2.2685,-2.2687,-2.2755,-2.2676,-2.2678,-2.2679,-2.2813,-2.2816,-2.2819,0,0,0,0,0,0,-2.2745,-2.2748,-2.2764,-2.2751,-2.2752,-2.2723,-2.2732,-2.2726,-2.2729,-2.2704,-2.2698,-2.2705,-2.2683,-2.2684,-2.2718,-2.2754,-2.2678,-2.268,-2.281,-2.2814,-2.2817,-2.2893,0,0,0,0,0,0,-2.2745,-2.2749,-2.2771,-2.2752,-2.2753,-2.2796,-2.2734,-2.2727,-2.2732,-2.2725,-2.2711,-2.2706,-2.2681,-2.2716,-2.272,-2.2755,-2.2681,-2.2806,-2.2812,-2.2816,-2.2887,-2.2899,-2.2909,0,0,0,0,0,-2.2744,-2.2793,-2.2772,-2.2775,-2.278,-2.2798,-2.2798,-2.2767,-2.2735,-2.2757,-2.2741,-2.2707,-2.2749,-2.272,-2.2724,-2.276,-2.2804,-2.281,-2.2816,-2.2883,-2.2897,-2.2909,0,0,0,0,0,0,-2.2817,-2.279,-2.2766,-2.2811,-2.2807,-2.2786,-2.2813,-2.2784,-2.279,-2.2783,-2.2745,-2.2742,-2.2782,-2.2775,-2.2743,-2.2817,-2.2771,-2.2778,-2.282,-2.2834,-2.2845,-2.2845,-2.2683,0,0,0,0,0,-2.2839,-2.2855,-2.2831,-2.2872,-2.2871,-2.2843,-2.285,-2.2826,-2.2821,-2.2819,-2.2806,-2.2803,-2.2815,-2.2824,-2.2834,-2.2886,-2.2882,-2.2913,-2.2924,-2.2933,-2.2939,-2.2966,-2.2979,-2.2838,-2.2838,-2.2838,0,0,-2.2883,-2.287,-2.2883,-2.2887,-2.2881,-2.2899,-2.2842,-2.2864,-2.2877,-2.2823,-2.2854,-2.2844,-2.2838,-2.2882,-2.29,-2.2876,-2.2977,-2.294,-2.2948,-2.2949,-2.2973,-2.2986,-2.2998,-2.2842,-2.2841,-2.2841,0,0,-2.2972,-2.2964,-2.2998,-2.2993,-2.2985,-2.2966,-2.2974,-2.2957,-2.2948,-2.2979,-2.2938,-2.2954,-2.2977,-2.2974,-2.2975,-2.3064,-2.3033,-2.3069,-2.3126,-2.3152,-2.3163,-2.3173,-2.3204,-2.3215,-2.3075,-2.3076,-2.3076,0,-2.3028,-2.3053,-2.3019,-2.3043,-2.3046,-2.2997,-2.3031,-2.3028,-2.3025,-2.3028,-2.3001,-2.3028,-2.3021,-2.3063,-2.3084,-2.3087,-2.3096,-2.307,-2.3164,-2.3174,-2.3182,-2.3211,-2.3223,-2.308,-2.3079,-2.3079,-2.3079,0,-2.3122,-2.3141,-2.3169,-2.3165,-2.3171,-2.32,-2.3171,-2.3181,-2.3158,-2.3141,-2.3173,-2.3163,-2.317,-2.3178,-2.3155,-2.3217,-2.3202,-2.3171,-2.3124,-2.32,-2.3227,-2.3238,-2.3086,-2.3085,-2.3083,-2.3082,0,0,-2.3257,-2.3234,-2.3245,-2.3242,-2.323,-2.3243,-2.3271,-2.3276,-2.3286,-2.3285,-2.3307,-2.3327,-2.3298,-2.33,-2.3276,-2.33,-2.337,-2.3265,-2.3264,-2.3284,-2.3436,-2.3459,-2.3473,-2.3349,-2.3351,-2.3353,-2.3436,0,-2.3342,-2.3385,-2.3355,-2.3404,-2.342,-2.3375,-2.3398,-2.3393,-2.3379,-2.3391,-2.3376,-2.339,-2.3351,-2.3351,-2.3373,-2.3357,-2.34,-2.3351,-2.3369,-2.337,-2.3371,-2.3487,-2.3511,-2.3591,-2.3447,-2.3449,-2.345,0,-2.3446,-2.3449,-2.3499,-2.3483,-2.3489,-2.351,-2.3513,-2.3525,-2.3519,-2.3507,-2.351,-2.348,-2.3506,-2.3461,-2.3496,-2.3463,-2.3469,-2.3463,-2.3465,-2.3465,-2.3414,-2.3489,-2.3615,-2.3627,-2.3466,-2.3465,-2.3464,0,-2.3538,-2.3555,-2.3587,-2.3586,-2.3568,-2.3585,-2.3578,-2.3569,-2.3575,-2.3578,-2.3581,-2.3588,-2.3591,-2.3597,-2.3571,-2.354,-2.3609,-2.3562,-2.36,-2.3601,-2.3616,-2.3615,-2.3744,-2.3622,-2.3622,-2.3621,-2.3621,0,-2.3635,-2.3668,-2.3628,-2.3647,-2.3682,-2.3648,-2.3684,-2.3673,-2.3666,-2.3683,-2.3644,-2.3661,-2.3625,-2.3639,-2.3619,-2.365,-2.3653,-2.3644,-2.3638,-2.3647,-2.3648,-2.3649,-2.3643,-2.3624,-2.3624,-2.3623,-2.3623,0,-2.3744,-2.3718,-2.375,-2.373,-2.3726,-2.3753,-2.3736,-2.3754,-2.3737,-2.3759,-2.3762,-2.3736,-2.375,-2.3725,-2.3736,-2.3722,-2.3766,-2.3752,-2.3768,-2.3763,-2.3803,-2.3799,-2.3936,-2.3952,-2.3821,-2.3823,-2.3824,0,-2.3807,-2.3831,-2.3813,-2.3821,-2.3817,-2.3831,-2.3836,-2.3803,-2.381,-2.3805,-2.3824,-2.3834,-2.3841,-2.3865,-2.3848,-2.3856,-2.3841,-2.3889,-2.3842,-2.385,-2.3841,-2.3839,-2.3841,-2.3898,-2.39,-2.3901,-2.3902,0,-2.3921,-2.3908,-2.3916,-2.392,-2.3927,-2.3929,-2.3928,-2.3938,-2.3903,-2.3913,-2.3926,-2.3932,-2.3942,-2.3953,-2.3957,-2.3951,-2.3921,-2.3917,-2.3926,-2.3935,-2.3942,-2.3938,-2.3793,-2.3914,-2.3913,-2.3912,-2.3911,-2.3911,-2.4008,-2.4027,-2.4017,-2.4028,-2.4024,-2.4024,-2.4039,-2.4024,-2.4035,-2.404,-2.4021,-2.4039,-2.4032,-2.4034,-2.4031,-2.4045,-2.4024,-2.4037,-2.404,-2.4044,-2.405,-2.3941,-2.4046,-2.4045,-2.4045,-2.4045,-2.4044,0,-2.412,-2.4111,-2.4122,-2.4121,-2.413,-2.41,-2.4098,-2.4107,-2.4123,-2.4119,-2.4126,-2.4142,-2.4152,-2.4135,-2.4143,-2.4157,-2.4144,-2.416,-2.4158,-2.4157,-2.4069,-2.406,-2.4171,-2.4171,-2.4171,-2.4171,-2.4171,-2.4171,-2.4179,-2.4208,-2.4194,-2.4221,-2.4212,-2.4229,-2.423,-2.423,-2.4226,-2.4245,-2.4253,-2.4242,-2.4233,-2.424,-2.4248,-2.4243,-2.4247,-2.4269,-2.4259,-2.4176,-2.4164,-2.4152,-2.4143,-2.427,-2.4271,-2.4346,-2.4347,-2.4347]},{"header":{"parameterUnit":"m.s-1","parameterCategory":1,"la1":30.2991,"la2":30.254,"lo1":-89.0895,"lo2":-89.0444,"dy":0.0017,"dx":0.0017,"nx":28,"ny":28,"refTime":"2025-01-30T09:00:00:Z","depth":0,"parameterNumber":3,"parameterNumberName":"V-component_of_WINDS"},"data":[0,0,0,0,0,0,0,0,0,0,0,0,0,0,0,0,0,0,0,0,0,0,0,0,0,0,0,0,0,0,0,0,0,0,0,0,0,0,0,0,0,0,0,0,0,0,0,0,0,0,0,0,0,0,0,0,0,0,0.7825,0.7825,0,0.7834,0.7834,0.7835,0.7811,0.781,0.781,0.7809,0.782,0.782,0.7821,0,0,0,0,0,0,0,0,0,0,0,0,0,0.7789,0.779,0.7825,0.7825,0.7825,0.7834,0.7834,0.7835,0.7811,0.781,0.7809,0.7809,0.7819,0.782,0.7822,0,0,0,0,0,0,0,0,0,0,0,0,0,0.7802,0.779,0.7825,0.7815,0.7814,0.7834,0.7834,0.7835,0.7811,0.781,0.7809,0.7808,0.7819,0.782,0.7822,0.7853,0,0,0.7826,0.7827,0,0,0,0,0,0,0,0,0.7802,0.7804,0.7816,0.7815,0.7814,0.782,0.7826,0.7841,0.7812,0.7812,0.7809,0.7808,0.7821,0.7822,0.7826,0.7853,0.7854,0.7826,0.7827,0.7828,0.7828,0,0,0,0,0,0,0,0.7801,0.7803,0.7829,0.7816,0.7815,0.781,0.7811,0.7828,0.7823,0.7812,0.781,0.7812,0.782,0.7825,0.7826,0.7854,0.7826,0.7828,0.7828,0.7829,0.791,0.7911,0,0,0,0,0,0,0.7801,0.7803,0.7828,0.7829,0.7805,0.7812,0.7813,0.782,0.7822,0.7822,0.7813,0.7811,0.7823,0.7825,0.7827,0.7865,0.7828,0.7829,0.783,0.7909,0.791,0.7912,0,0,0,0,0,0,0.78,0.7803,0.7828,0.7815,0.7818,0.7814,0.7822,0.782,0.7825,0.7823,0.7822,0.7819,0.7822,0.7825,0.7847,0.7865,0.783,0.7831,0.7907,0.7909,0.7911,0.7942,0,0,0,0,0,0,0.7799,0.7803,0.7815,0.7816,0.7819,0.7848,0.7823,0.7821,0.7828,0.7825,0.7828,0.7828,0.7821,0.7845,0.7849,0.7867,0.7832,0.7906,0.7908,0.791,0.7939,0.7945,0.7949,0,0,0,0,0,0.7798,0.7823,0.7815,0.7819,0.7833,0.7849,0.7851,0.7843,0.7829,0.7841,0.784,0.7827,0.7862,0.7848,0.7851,0.787,0.7904,0.7907,0.791,0.7937,0.7944,0.7949,0,0,0,0,0,0,0.7824,0.7823,0.7814,0.784,0.7845,0.7845,0.786,0.785,0.7859,0.7856,0.7846,0.7847,0.7872,0.7873,0.7856,0.7902,0.7881,0.7885,0.79,0.7907,0.7912,0.7912,0.7834,0,0,0,0,0,0.7833,0.7845,0.7843,0.7866,0.7869,0.7864,0.7871,0.7864,0.7869,0.7871,0.7871,0.7877,0.7889,0.7898,0.7909,0.7939,0.794,0.7954,0.7959,0.7963,0.7967,0.7985,0.7992,0.7921,0.7921,0.7921,0,0,0.7851,0.7852,0.786,0.7872,0.7875,0.7889,0.7866,0.7881,0.7893,0.7873,0.7895,0.7896,0.7901,0.7929,0.794,0.793,0.7987,0.7967,0.797,0.7972,0.7989,0.7996,0.8002,0.7923,0.7923,0.7922,0,0,0.7892,0.7893,0.7913,0.7916,0.7921,0.7918,0.7923,0.7924,0.7924,0.7946,0.7932,0.7945,0.7966,0.7972,0.7977,0.8021,0.8011,0.8025,0.8052,0.807,0.8075,0.808,0.8098,0.8105,0.8029,0.8029,0.8029,0,0.7914,0.7934,0.7924,0.7942,0.7948,0.7931,0.7952,0.7956,0.7965,0.797,0.7958,0.7985,0.7988,0.8017,0.8028,0.8032,0.8039,0.8025,0.8075,0.808,0.8085,0.8102,0.8108,0.803,0.803,0.803,0.803,0,0.7963,0.7977,0.7993,0.8002,0.8009,0.8029,0.8023,0.8032,0.8025,0.8023,0.8047,0.8049,0.8061,0.8067,0.806,0.8096,0.809,0.8077,0.8056,0.8093,0.8109,0.8116,0.8033,0.8032,0.8032,0.8031,0,0,0.8021,0.8024,0.803,0.8035,0.8039,0.8051,0.807,0.8082,0.8091,0.8097,0.8114,0.8133,0.8121,0.8127,0.8121,0.8136,0.8174,0.8122,0.8122,0.8133,0.8217,0.8228,0.8236,0.8167,0.8168,0.8169,0.8217,0,0.8063,0.8095,0.8087,0.812,0.8134,0.8119,0.8135,0.8141,0.814,0.8153,0.8151,0.8166,0.8148,0.8152,0.8167,0.8167,0.8191,0.8163,0.8184,0.8185,0.8185,0.8243,0.8255,0.83,0.8223,0.8224,0.8224,0,0.8116,0.8125,0.8159,0.8163,0.8169,0.8184,0.8195,0.8207,0.8213,0.8211,0.8219,0.821,0.823,0.8208,0.8237,0.8218,0.8226,0.8228,0.8229,0.8232,0.8209,0.8251,0.8314,0.8322,0.8234,0.8233,0.8232,0,0.8158,0.8178,0.8202,0.8206,0.821,0.8222,0.8224,0.8229,0.8237,0.8247,0.8253,0.8265,0.8272,0.8282,0.8277,0.8261,0.8308,0.8285,0.8309,0.8309,0.8321,0.832,0.8389,0.8322,0.8322,0.8322,0.8322,0,0.8207,0.8229,0.8221,0.8236,0.8261,0.8251,0.8277,0.8277,0.8282,0.8297,0.8284,0.8299,0.8291,0.8306,0.8302,0.8328,0.833,0.8331,0.833,0.8333,0.8333,0.834,0.8337,0.8324,0.8323,0.8323,0.8323,0,0.8259,0.8254,0.8279,0.8281,0.8282,0.8301,0.8303,0.8317,0.8315,0.8335,0.8339,0.8337,0.8354,0.8349,0.8367,0.8365,0.8398,0.8392,0.8396,0.8396,0.8421,0.8419,0.8497,0.8508,0.8433,0.8433,0.8434,0,0.8292,0.8308,0.8312,0.8322,0.8325,0.834,0.8349,0.834,0.835,0.8359,0.8373,0.8389,0.8401,0.8429,0.8429,0.8443,0.8439,0.8465,0.8441,0.8445,0.8442,0.8442,0.8445,0.8471,0.8472,0.8473,0.8473,0,0.8351,0.8348,0.836,0.8373,0.8383,0.8393,0.8401,0.8409,0.8402,0.8414,0.8431,0.844,0.8459,0.8476,0.8489,0.8493,0.8483,0.848,0.8487,0.8492,0.8495,0.8496,0.8412,0.8479,0.8479,0.8478,0.8478,0.8478,0.8396,0.8411,0.8416,0.8431,0.8437,0.8445,0.8459,0.8459,0.8473,0.8488,0.8482,0.8502,0.8509,0.8526,0.8532,0.8548,0.8538,0.8547,0.855,0.8553,0.8557,0.849,0.855,0.855,0.855,0.855,0.8549,0,0.8457,0.846,0.8473,0.8486,0.8498,0.8486,0.8495,0.8506,0.8524,0.8531,0.8544,0.8564,0.858,0.8582,0.8598,0.8611,0.8607,0.8615,0.8616,0.8617,0.8564,0.8558,0.8619,0.8619,0.8619,0.8619,0.8618,0.8618,0.849,0.8516,0.8513,0.8542,0.8545,0.8564,0.8571,0.8579,0.8585,0.8608,0.8622,0.8622,0.8628,0.8644,0.8659,0.8659,0.8667,0.8677,0.8676,0.8627,0.862,0.8614,0.8608,0.8679,0.8679,0.8728,0.8729,0.8729]}]]